Location: Dittelbrunn
(50.0738°N, 10.2196°E)
Time: 23:28:26
(UTC+00:00)

Cosmos 2082 Rocket - Pass Details

Date: 18 September 2020
Orbit: 834 x 853 km, 71.0° (Epoch: 30 October)

Event Time Altitude Azimuth Distance (km) Brightness Sun altitude
Rises 20:39:20 0° 332° (NNW) 3,393 6.4 -28.9°
Reaches altitude 10° 20:41:50 10° 336° (NNW) 2,456 5.4 -29.2°
Enters shadow 20:46:37 53° 23° (NNE) 1,024 2.6 -29.7°
